Princeton Airport, British Columbia

3:57 PM PST on February 17, 2018 (GMT -0800)
Princeton Airport

Weather History for CYDC - April, 2014

Change the Weather History Date:

Sunday, April 27, 2014

  Actual Average Record
Temperature  
Mean Temperature 42 °F -  
Max Temperature 48 °F 64 °F 73 °F (1998)
Min Temperature 33 °F 36 °F 19 °F (2017)
Degree Days  
Heating Degree Days 23    
Moisture  
Dew Point 28 °F    
Average Humidity 60    
Maximum Humidity 93    
Minimum Humidity 37    
Precipitation  
Precipitation 0.08 in 0.03 in - ()
Sea Level Pressure  
Sea Level Pressure 29.76 in    
Wind  
Wind Speed 6 mph ()    
Max Wind Speed 22 mph    
Max Gust Speed 31 mph    
Visibility 14.3 miles    
Events Snow , Hail    
Averages and records for this station are not official NWS values.
T = Trace of Precipitation, MM = Missing Value Source: Averaged Metar Reports

Daily Weather History Graph

Daily Weather History Graph

Search for Another Location

Airport or City:

Trip Planner

Search our weather history database for the weather conditions in past years. The results will help you decide how hot, cold, wet, or windy it might be!

Date:

Astronomy

Apr. 27, 2014 Rise Set
Actual Time 5:46 AM PDT 8:13 PM PDT
Civil Twilight 5:11 AM PDT 8:49 PM PDT
Nautical Twilight 4:26 AM PDT 9:34 PM PDT
Astronomical Twilight 3:35 AM PDT 10:26 PM PDT
Moon 5:01 AM PDT (4/27) 6:45 PM PDT (4/27)
Length of Visible Light 15h 37m
Length of Day
14h 26m
Waning Crescent, 3% of the Moon is Illuminated
Apr 27
Waning Crescent
Apr 28
New
May 6
First Quarter
May 14
Full
May 21
Last Quarter

Hourly Weather History & Observations

Time (PDT) Temp. Windchill Dew Point Humidity Pressure Visibility Wind Dir Wind Speed Gust Speed Precip Events Conditions
5:00 AM 37 °F - 32 °F 74% 29.88 in - East 13.8 mph - -  
6:00 AM 28.4 °F 24.6 °F 24.8 °F 86% 29.65 in 15.0 mi NE 3.5 mph - N/A   Mostly Cloudy
7:00 AM 30.2 °F - 28.4 °F 93% 29.68 in 15.0 mi Calm Calm - N/A   Mostly Cloudy
7:48 AM 33.8 °F 30.8 °F 26.6 °F 75% 29.70 in 15.0 mi South 3.5 mph - N/A Snow Light Snow Showers
8:00 AM 32.0 °F - 26.6 °F 80% 29.70 in 15.0 mi Calm Calm - N/A Snow Light Snow Showers
8:16 AM 33.8 °F - 28.4 °F 81% 29.71 in 15.0 mi South 2.3 mph - N/A   Mostly Cloudy
9:00 AM 37.4 °F - 28.4 °F 70% 29.71 in 15.0 mi Variable 2.3 mph - N/A   Mostly Cloudy
11:00 AM 43 °F - 32 °F 55% 29.87 in - East 20.7 mph - -  
11:00 AM 46.4 °F - 26.6 °F 46% 29.71 in 15.0 mi Calm Calm - N/A   Mostly Cloudy
12:00 PM 48.2 °F - 26.6 °F 43% 29.70 in 15.0 mi Variable 2.3 mph - N/A   Mostly Cloudy
12:40 PM 46.4 °F 45.2 °F 26.6 °F 46% 29.72 in 15.0 mi Variable 3.5 mph - N/A   Mostly Cloudy
1:00 PM 50.0 °F - 26.6 °F 40% 29.71 in 15.0 mi SSE 3.5 mph - N/A   Mostly Cloudy
1:32 PM 46.4 °F 38.5 °F 28.4 °F 50% 29.73 in 14.0 mi West 21.9 mph 29.9 mph N/A   Light Small Hail Showers
1:36 PM 44.6 °F 37.4 °F 28.4 °F 53% 29.75 in 12.0 mi West 16.1 mph 31.1 mph N/A Hail Hail Showers
2:00 PM 44.6 °F 38.8 °F 26.6 °F 49% 29.76 in 7.0 mi West 11.5 mph 21.9 mph N/A   Mostly Cloudy
2:34 PM 48.2 °F - 30.2 °F 50% 29.77 in 15.0 mi East 5.8 mph - N/A   Mostly Cloudy
3:00 PM 46.4 °F 44.3 °F 28.4 °F 50% 29.77 in 15.0 mi East 4.6 mph - N/A   Mostly Cloudy
4:00 PM 50.0 °F - 24.8 °F 37% 29.78 in 15.0 mi WSW 8.1 mph - N/A   Mostly Cloudy
5:00 PM 39 °F - 33 °F 73% 29.88 in - ESE 18.4 mph - -  
5:00 PM 48.2 °F - 24.8 °F 40% 29.81 in 15.0 mi West 10.4 mph 18.4 mph N/A   Mostly Cloudy
6:00 PM 48.2 °F - 23.0 °F 37% 29.84 in 15.0 mi WNW 9.2 mph - N/A   Mostly Cloudy
11:00 PM 33 °F - 32 °F 93% 29.87 in - SE 4.6 mph - -